Time,TemperatureF,DewpointF,PressureIn,WindDirection,WindDirectionDegrees,WindSpeedMPH,WindSpeedGustMPH,Humidity,HourlyPrecipIn,Conditions,Clouds,dailyrainin,SoftwareType,DateUTC
2013-07-15 00:00:00,74.0,73.4,30.19,East,84,0.0,1.0,98,0.00,,,0.00,WeatherCatV1.20B785,2013-07-15 04:00:00,
2013-07-15 00:05:00,74.0,73.4,30.19,East,84,0.0,3.0,98,0.00,,,0.00,WeatherCatV1.20B785,2013-07-15 04:05:00,
2013-07-15 00:10:00,74.0,73.4,30.19,East,84,1.0,1.0,98,0.00,,,0.00,WeatherCatV1.20B785,2013-07-15 04:10:00,
2013-07-15 00:20:00,74.2,73.6,30.20,East,90,0.0,3.0,98,0.00,,,0.00,WeatherCatV1.20B785,2013-07-15 04:20:00,
2013-07-15 00:25:00,74.2,73.6,30.20,East,90,0.0,2.0,98,0.00,,,0.00,WeatherCatV1.20B785,2013-07-15 04:25:00,
2013-07-15 00:30:00,74.2,73.6,30.20,East,90,1.0,1.0,98,0.00,,,0.00,WeatherCatV1.20B785,2013-07-15 04:30:00,
2013-07-15 00:35:00,74.2,73.6,30.20,East,90,0.0,0.0,98,0.00,,,0.00,WeatherCatV1.20B785,2013-07-15 04:35:00,
2013-07-15 00:40:00,74.2,73.6,30.20,East,90,0.0,0.0,98,0.00,,,0.00,WeatherCatV1.20B785,2013-07-15 04:40:00,
2013-07-15 00:45:00,74.0,73.4,30.20,East,90,1.0,2.0,98,0.00,,,0.00,WeatherCatV1.20B785,2013-07-15 04:45:00,
2013-07-15 00:50:00,74.0,73.4,30.20,East,90,0.0,0.0,98,0.00,,,0.00,WeatherCatV1.20B785,2013-07-15 04:50:00,
2013-07-15 00:55:00,74.0,73.4,30.20,East,90,0.0,0.0,98,0.00,,,0.00,WeatherCatV1.20B785,2013-07-15 04:55:00,
2013-07-15 01:00:00,74.0,73.4,30.20,East,90,0.0,0.0,98,0.00,,,0.00,WeatherCatV1.20B785,2013-07-15 05:00:00,
2013-07-15 01:05:00,73.9,73.3,30.20,East,90,0.0,0.0,98,0.00,,,0.00,WeatherCatV1.20B785,2013-07-15 05:05:00,
2013-07-15 01:10:00,73.9,73.3,30.20,East,90,0.0,0.0,98,0.00,,,0.00,WeatherCatV1.20B785,2013-07-15 05:10:00,
2013-07-15 01:15:00,73.7,73.1,30.19,East,90,0.0,0.0,98,0.00,,,0.00,WeatherCatV1.20B785,2013-07-15 05:15:00,
2013-07-15 01:20:00,73.7,73.1,30.19,East,90,0.0,3.0,98,0.00,,,0.00,WeatherCatV1.20B785,2013-07-15 05:20:00,
2013-07-15 01:30:00,73.5,72.9,30.19,East,90,0.0,2.0,98,0.00,,,0.00,WeatherCatV1.20B785,2013-07-15 05:30:00,
2013-07-15 01:35:00,73.5,72.9,30.19,East,90,0.0,0.0,98,0.00,,,0.00,WeatherCatV1.20B785,2013-07-15 05:35:00,
2013-07-15 01:40:00,73.5,73.2,30.19,East,90,0.0,0.0,99,0.00,,,0.00,WeatherCatV1.20B785,2013-07-15 05:40:00,
2013-07-15 01:45:00,73.5,73.2,30.20,East,90,0.0,0.0,99,0.00,,,0.00,WeatherCatV1.20B785,2013-07-15 05:45:00,
2013-07-15 01:50:00,73.3,73.0,30.20,East,90,0.0,1.0,99,0.00,,,0.00,WeatherCatV1.20B785,2013-07-15 05:50:00,
2013-07-15 01:55:00,73.3,73.0,30.20,East,90,0.0,0.0,99,0.00,,,0.00,WeatherCatV1.20B785,2013-07-15 05:55:00,
2013-07-15 02:00:00,73.2,72.9,30.20,East,90,0.0,1.0,99,0.00,,,0.00,WeatherCatV1.20B785,2013-07-15 06:00:00,
2013-07-15 02:05:00,73.2,72.9,30.20,East,90,0.0,0.0,99,0.00,,,0.00,WeatherCatV1.20B785,2013-07-15 06:05:00,
2013-07-15 02:10:00,73.2,72.9,30.20,East,90,0.0,0.0,99,0.00,,,0.00,WeatherCatV1.20B785,2013-07-15 06:10:00,
2013-07-15 02:15:00,73.0,72.7,30.20,East,90,0.0,0.0,99,0.00,,,0.00,WeatherCatV1.20B785,2013-07-15 06:15:00,
2013-07-15 02:20:00,72.8,72.5,30.20,East,90,0.0,0.0,99,0.00,,,0.00,WeatherCatV1.20B785,2013-07-15 06:20:00,
2013-07-15 02:25:00,72.8,72.5,30.20,East,90,0.0,0.0,99,0.00,,,0.00,WeatherCatV1.20B785,2013-07-15 06:25:00,
2013-07-15 02:30:00,72.8,72.5,30.20,East,90,0.0,0.0,99,0.00,,,0.00,WeatherCatV1.20B785,2013-07-15 06:30:00,
2013-07-15 02:35:00,72.8,72.5,30.20,East,90,0.0,0.0,99,0.00,,,0.00,WeatherCatV1.20B785,2013-07-15 06:35:00,
2013-07-15 02:40:00,72.7,72.4,30.20,East,90,0.0,0.0,99,0.00,,,0.00,WeatherCatV1.20B785,2013-07-15 06:40:00,
2013-07-15 02:45:00,72.7,72.4,30.20,East,90,0.0,0.0,99,0.00,,,0.00,WeatherCatV1.20B785,2013-07-15 06:45:00,
2013-07-15 02:55:00,72.7,72.7,30.20,East,90,0.0,0.0,100,0.00,,,0.00,WeatherCatV1.20B785,2013-07-15 06:55:00,
2013-07-15 03:00:00,72.7,72.7,30.20,East,90,0.0,0.0,100,0.00,,,0.00,WeatherCatV1.20B785,2013-07-15 07:00:00,
2013-07-15 03:10:00,72.7,72.7,30.20,East,90,0.0,0.0,100,0.00,,,0.00,WeatherCatV1.20B785,2013-07-15 07:10:00,
2013-07-15 03:15:00,72.7,72.7,30.20,East,90,0.0,0.0,100,0.00,,,0.00,WeatherCatV1.20B785,2013-07-15 07:15:00,
2013-07-15 03:20:00,72.5,72.5,30.20,East,90,0.0,0.0,100,0.00,,,0.00,WeatherCatV1.20B785,2013-07-15 07:20:00,
2013-07-15 03:25:00,72.3,72.3,30.20,East,90,0.0,0.0,100,0.00,,,0.00,WeatherCatV1.20B785,2013-07-15 07:25:00,
2013-07-15 03:30:00,72.3,72.3,30.20,East,90,0.0,0.0,100,0.00,,,0.00,WeatherCatV1.20B785,2013-07-15 07:30:00,
2013-07-15 03:35:00,72.1,72.1,30.20,East,90,0.0,0.0,100,0.00,,,0.00,WeatherCatV1.20B785,2013-07-15 07:35:00,
2013-07-15 03:40:00,72.1,72.1,30.20,East,90,1.0,2.0,100,0.00,,,0.00,WeatherCatV1.20B785,2013-07-15 07:40:00,
2013-07-15 03:45:00,72.1,72.1,30.20,East,90,0.0,0.0,100,0.00,,,0.00,WeatherCatV1.20B785,2013-07-15 07:45:00,
2013-07-15 03:50:00,72.1,72.1,30.20,East,90,0.0,0.0,100,0.00,,,0.00,WeatherCatV1.20B785,2013-07-15 07:50:00,
2013-07-15 03:55:00,72.0,72.0,30.20,East,90,0.0,1.0,100,0.00,,,0.00,WeatherCatV1.20B785,2013-07-15 07:55:00,
2013-07-15 04:00:00,72.1,72.1,30.21,East,90,0.0,2.0,100,0.00,,,0.00,WeatherCatV1.20B785,2013-07-15 08:00:00,
2013-07-15 04:05:00,72.1,72.1,30.21,East,90,0.0,0.0,100,0.00,,,0.00,WeatherCatV1.20B785,2013-07-15 08:05:00,
2013-07-15 04:10:00,72.1,72.1,30.21,East,90,0.0,0.0,100,0.00,,,0.00,WeatherCatV1.20B785,2013-07-15 08:10:00,
2013-07-15 04:15:00,72.1,72.1,30.21,East,90,0.0,0.0,100,0.00,,,0.00,WeatherCatV1.20B785,2013-07-15 08:15:00,
2013-07-15 04:20:00,72.0,72.0,30.21,East,90,0.0,0.0,100,0.00,,,0.00,WeatherCatV1.20B785,2013-07-15 08:20:00,
2013-07-15 04:25:00,71.8,71.8,30.21,East,90,0.0,0.0,100,0.00,,,0.00,WeatherCatV1.20B785,2013-07-15 08:25:00,
2013-07-15 04:30:00,71.8,71.8,30.21,East,90,0.0,0.0,100,0.00,,,0.00,WeatherCatV1.20B785,2013-07-15 08:30:00,
2013-07-15 04:35:00,71.6,71.6,30.21,East,90,0.0,0.0,100,0.00,,,0.00,WeatherCatV1.20B785,2013-07-15 08:35:00,
2013-07-15 04:40:00,71.5,71.5,30.21,East,90,0.0,0.0,100,0.00,,,0.00,WeatherCatV1.20B785,2013-07-15 08:40:00,
2013-07-15 04:45:00,71.6,71.6,30.21,East,90,0.0,0.0,100,0.00,,,0.00,WeatherCatV1.20B785,2013-07-15 08:45:00,
2013-07-15 04:50:00,71.6,71.6,30.21,East,90,0.0,0.0,100,0.00,,,0.00,WeatherCatV1.20B785,2013-07-15 08:50:00,
2013-07-15 04:55:00,71.6,71.6,30.21,East,90,0.0,0.0,100,0.00,,,0.00,WeatherCatV1.20B785,2013-07-15 08:55:00,
2013-07-15 05:00:00,71.5,71.5,30.21,East,90,0.0,0.0,100,0.00,,,0.00,WeatherCatV1.20B785,2013-07-15 09:00:00,
2013-07-15 05:05:00,71.5,71.5,30.21,East,90,0.0,0.0,100,0.00,,,0.00,WeatherCatV1.20B785,2013-07-15 09:05:00,
2013-07-15 05:10:00,71.3,71.3,30.21,East,90,0.0,0.0,100,0.00,,,0.00,WeatherCatV1.20B785,2013-07-15 09:10:00,
2013-07-15 05:15:00,71.1,71.1,30.21,East,90,0.0,0.0,100,0.00,,,0.00,WeatherCatV1.20B785,2013-07-15 09:15:00,
2013-07-15 05:20:00,71.1,71.1,30.21,East,90,0.0,0.0,100,0.00,,,0.00,WeatherCatV1.20B785,2013-07-15 09:20:00,
2013-07-15 05:25:00,71.1,71.1,30.21,East,90,0.0,0.0,100,0.00,,,0.00,WeatherCatV1.20B785,2013-07-15 09:25:00,
2013-07-15 05:30:00,70.9,70.9,30.22,East,90,0.0,0.0,100,0.00,,,0.00,WeatherCatV1.20B785,2013-07-15 09:30:00,
2013-07-15 05:35:00,70.9,70.9,30.22,East,90,0.0,0.0,100,0.00,,,0.00,WeatherCatV1.20B785,2013-07-15 09:35:00,
2013-07-15 05:40:00,70.9,70.9,30.22,East,90,0.0,0.0,100,0.00,,,0.00,WeatherCatV1.20B785,2013-07-15 09:40:00,
2013-07-15 05:45:00,70.8,70.8,30.23,East,90,0.0,0.0,100,0.00,,,0.00,WeatherCatV1.20B785,2013-07-15 09:45:00,
2013-07-15 05:50:00,70.8,70.8,30.23,East,90,0.0,0.0,100,0.00,,,0.00,WeatherCatV1.20B785,2013-07-15 09:50:00,
2013-07-15 05:55:00,70.6,70.6,30.23,East,90,0.0,0.0,100,0.00,,,0.00,WeatherCatV1.20B785,2013-07-15 09:55:00,
2013-07-15 06:00:00,70.6,70.6,30.23,East,90,0.0,0.0,100,0.00,,,0.00,WeatherCatV1.20B785,2013-07-15 10:00:00,
2013-07-15 06:05:00,70.4,70.4,30.23,East,90,0.0,0.0,100,0.00,,,0.00,WeatherCatV1.20B785,2013-07-15 10:05:00,
2013-07-15 06:10:00,70.4,70.4,30.23,East,90,0.0,0.0,100,0.00,,,0.00,WeatherCatV1.20B785,2013-07-15 10:10:00,
2013-07-15 06:15:00,70.4,70.4,30.23,East,90,0.0,0.0,100,0.00,,,0.00,WeatherCatV1.20B785,2013-07-15 10:15:00,
2013-07-15 06:20:00,70.3,70.3,30.23,East,90,0.0,0.0,100,0.00,,,0.00,WeatherCatV1.20B785,2013-07-15 10:20:00,
2013-07-15 06:25:00,70.3,70.3,30.23,East,90,0.0,0.0,100,0.00,,,0.00,WeatherCatV1.20B785,2013-07-15 10:25:00,
2013-07-15 06:30:00,70.3,70.3,30.23,East,90,0.0,0.0,100,0.00,,,0.00,WeatherCatV1.20B785,2013-07-15 10:30:00,
2013-07-15 06:35:00,70.3,70.3,30.23,North,1,0.0,0.0,100,0.00,,,0.00,WeatherCatV1.20B785,2013-07-15 10:35:00,
2013-07-15 06:40:00,70.3,70.3,30.23,North,1,0.0,0.0,100,0.00,,,0.00,WeatherCatV1.20B785,2013-07-15 10:40:00,
2013-07-15 06:45:00,70.3,70.3,30.24,North,1,0.0,0.0,100,0.00,,,0.00,WeatherCatV1.20B785,2013-07-15 10:45:00,
2013-07-15 06:50:00,70.3,70.3,30.24,North,1,0.0,0.0,100,0.00,,,0.00,WeatherCatV1.20B785,2013-07-15 10:50:00,
2013-07-15 06:55:00,70.3,70.3,30.24,North,1,0.0,0.0,100,0.00,,,0.00,WeatherCatV1.20B785,2013-07-15 10:55:00,
2013-07-15 07:00:00,70.3,70.3,30.24,North,1,0.0,0.0,100,0.00,,,0.00,WeatherCatV1.20B785,2013-07-15 11:00:00,
2013-07-15 07:05:00,70.3,70.3,30.24,North,1,0.0,0.0,100,0.00,,,0.00,WeatherCatV1.20B785,2013-07-15 11:05:00,
2013-07-15 07:10:00,70.3,70.3,30.24,North,1,0.0,0.0,100,0.00,,,0.00,WeatherCatV1.20B785,2013-07-15 11:10:00,
2013-07-15 07:15:00,70.4,70.4,30.24,North,1,0.0,0.0,100,0.00,,,0.00,WeatherCatV1.20B785,2013-07-15 11:15:00,
2013-07-15 07:20:00,70.8,70.8,30.24,North,1,0.0,0.0,100,0.00,,,0.00,WeatherCatV1.20B785,2013-07-15 11:20:00,
2013-07-15 07:25:00,71.6,71.6,30.24,North,1,0.0,0.0,100,0.00,,,0.00,WeatherCatV1.20B785,2013-07-15 11:25:00,
2013-07-15 07:30:00,72.0,72.0,30.24,NW,309,0.0,0.0,100,0.00,,,0.00,WeatherCatV1.20B785,2013-07-15 11:30:00,
2013-07-15 07:35:00,72.1,72.1,30.24,WNW,300,0.0,0.0,100,0.00,,,0.00,WeatherCatV1.20B785,2013-07-15 11:35:00,
2013-07-15 07:40:00,72.3,72.3,30.24,WNW,300,0.0,0.0,100,0.00,,,0.00,WeatherCatV1.20B785,2013-07-15 11:40:00,
2013-07-15 07:45:00,72.5,72.5,30.24,WNW,300,0.0,0.0,100,0.00,,,0.00,WeatherCatV1.20B785,2013-07-15 11:45:00,
2013-07-15 07:50:00,73.0,73.0,30.24,SSE,155,0.0,1.0,100,0.00,,,0.00,WeatherCatV1.20B785,2013-07-15 11:50:00,
2013-07-15 07:55:00,73.7,73.7,30.24,SSE,155,0.0,2.0,100,0.00,,,0.00,WeatherCatV1.20B785,2013-07-15 11:55:00,
2013-07-15 08:00:00,74.6,74.6,30.25,SSE,155,0.0,1.0,100,0.00,,,0.00,WeatherCatV1.20B785,2013-07-15 12:00:00,
2013-07-15 08:05:00,74.7,74.7,30.25,SSE,154,0.0,1.0,100,0.00,,,0.00,WeatherCatV1.20B785,2013-07-15 12:05:00,
2013-07-15 08:10:00,75.1,75.1,30.25,SSE,154,0.0,0.0,100,0.00,,,0.00,WeatherCatV1.20B785,2013-07-15 12:10:00,
2013-07-15 08:15:00,75.8,75.8,30.25,SSE,155,2.0,3.0,100,0.00,,,0.00,WeatherCatV1.20B785,2013-07-15 12:15:00,
2013-07-15 08:20:00,76.5,76.5,30.25,SSE,155,0.0,1.0,100,0.00,,,0.00,WeatherCatV1.20B785,2013-07-15 12:20:00,
2013-07-15 08:25:00,77.4,76.5,30.25,SSE,155,0.0,1.0,97,0.00,,,0.00,WeatherCatV1.20B785,2013-07-15 12:25:00,
2013-07-15 08:30:00,77.9,75.7,30.25,SSE,160,0.0,0.0,93,0.00,,,0.00,WeatherCatV1.20B785,2013-07-15 12:30:00,
2013-07-15 08:35:00,78.6,75.7,30.25,SSE,160,0.0,0.0,91,0.00,,,0.00,WeatherCatV1.20B785,2013-07-15 12:35:00,
2013-07-15 08:40:00,79.2,74.6,30.25,SSE,160,0.0,1.0,86,0.00,,,0.00,WeatherCatV1.20B785,2013-07-15 12:40:00,
2013-07-15 08:45:00,80.1,75.5,30.25,SSE,160,0.0,3.0,86,0.00,,,0.00,WeatherCatV1.20B785,2013-07-15 12:45:00,
2013-07-15 08:50:00,80.7,75.8,30.25,SSE,160,0.0,1.0,85,0.00,,,0.00,WeatherCatV1.20B785,2013-07-15 12:50:00,
2013-07-15 08:55:00,81.1,75.4,30.25,SSE,161,1.0,3.0,83,0.00,,,0.00,WeatherCatV1.20B785,2013-07-15 12:55:00,
2013-07-15 09:00:00,81.4,75.4,30.25,South,170,0.0,1.0,82,0.00,,,0.00,WeatherCatV1.20B785,2013-07-15 13:00:00,
2013-07-15 09:05:00,81.6,75.2,30.25,SW,226,0.0,1.0,81,0.00,,,0.00,WeatherCatV1.20B785,2013-07-15 13:05:00,
2013-07-15 09:10:00,81.6,75.6,30.25,South,177,0.0,1.0,82,0.00,,,0.00,WeatherCatV1.20B785,2013-07-15 13:10:00,
2013-07-15 09:15:00,82.2,75.8,30.26,South,187,0.0,0.0,81,0.00,,,0.00,WeatherCatV1.20B785,2013-07-15 13:15:00,
2013-07-15 09:20:00,82.4,74.4,30.26,SE,139,0.0,7.0,77,0.00,,,0.00,WeatherCatV1.20B785,2013-07-15 13:20:00,
2013-07-15 09:25:00,82.6,75.0,30.26,SSE,149,0.0,0.0,78,0.00,,,0.00,WeatherCatV1.20B785,2013-07-15 13:25:00,
2013-07-15 09:30:00,82.6,74.2,30.26,SSE,148,0.0,7.0,76,0.00,,,0.00,WeatherCatV1.20B785,2013-07-15 13:30:00,
2013-07-15 09:35:00,83.0,75.4,30.26,West,269,0.0,0.0,78,0.00,,,0.00,WeatherCatV1.20B785,2013-07-15 13:35:00,
2013-07-15 09:40:00,83.4,75.0,30.26,ESE,120,2.0,4.0,76,0.00,,,0.00,WeatherCatV1.20B785,2013-07-15 13:40:00,
2013-07-15 09:45:00,83.6,74.8,30.26,SE,146,1.0,2.0,75,0.00,,,0.00,WeatherCatV1.20B785,2013-07-15 13:45:00,
2013-07-15 09:50:00,84.0,74.0,30.26,ESE,120,0.0,2.0,72,0.00,,,0.00,WeatherCatV1.20B785,2013-07-15 13:50:00,
2013-07-15 09:55:00,84.1,74.5,30.26,WSW,257,0.0,5.0,73,0.00,,,0.00,WeatherCatV1.20B785,2013-07-15 13:55:00,
2013-07-15 10:00:00,84.1,74.5,30.26,SSW,200,0.0,1.0,73,0.00,,,0.00,WeatherCatV1.20B785,2013-07-15 14:00:00,
2013-07-15 10:05:00,84.3,74.7,30.26,South,173,0.0,5.0,73,0.00,,,0.00,WeatherCatV1.20B785,2013-07-15 14:05:00,
2013-07-15 10:10:00,84.1,74.1,30.26,SSE,167,0.0,6.0,72,0.00,,,0.00,WeatherCatV1.20B785,2013-07-15 14:10:00,
2013-07-15 10:15:00,84.3,74.7,30.26,South,171,0.0,1.0,73,0.00,,,0.00,WeatherCatV1.20B785,2013-07-15 14:15:00,
2013-07-15 10:20:00,84.3,74.3,30.26,ESE,123,0.0,3.0,72,0.00,,,0.00,WeatherCatV1.20B785,2013-07-15 14:20:00,
2013-07-15 10:25:00,84.3,75.9,30.26,WNW,285,0.0,4.0,76,0.00,,,0.00,WeatherCatV1.20B785,2013-07-15 14:25:00,
2013-07-15 10:30:00,84.3,73.0,30.26,SW,233,0.0,3.0,69,0.00,,,0.00,WeatherCatV1.20B785,2013-07-15 14:30:00,
2013-07-15 10:35:00,84.5,73.6,30.26,SW,236,0.0,3.0,70,0.00,,,0.00,WeatherCatV1.20B785,2013-07-15 14:35:00,
2013-07-15 10:40:00,85.1,76.3,30.26,West,268,0.0,4.0,75,0.00,,,0.00,WeatherCatV1.20B785,2013-07-15 14:40:00,
2013-07-15 10:45:00,85.3,75.2,30.26,SW,226,0.0,4.0,72,0.00,,,0.00,WeatherCatV1.20B785,2013-07-15 14:45:00,
2013-07-15 10:50:00,85.1,73.8,30.26,SSE,165,0.0,1.0,69,0.00,,,0.00,WeatherCatV1.20B785,2013-07-15 14:50:00,
2013-07-15 10:55:00,85.3,74.4,30.26,South,188,0.0,3.0,70,0.00,,,0.00,WeatherCatV1.20B785,2013-07-15 14:55:00,
2013-07-15 11:00:00,85.3,75.2,30.27,SW,231,0.0,1.0,72,0.00,,,0.00,WeatherCatV1.20B785,2013-07-15 15:00:00,
2013-07-15 11:10:00,85.1,74.6,30.27,West,265,0.0,0.0,71,0.00,,,0.00,WeatherCatV1.20B785,2013-07-15 15:10:00,
2013-07-15 11:15:00,85.1,75.0,30.27,ESE,111,0.0,4.0,72,0.00,,,0.00,WeatherCatV1.20B785,2013-07-15 15:15:00,
2013-07-15 11:25:00,84.9,74.8,30.27,WSW,252,0.0,0.0,72,0.00,,,0.00,WeatherCatV1.20B785,2013-07-15 15:25:00,
2013-07-15 11:30:00,85.1,73.8,30.27,WSW,251,3.0,3.0,69,0.00,,,0.00,WeatherCatV1.20B785,2013-07-15 15:30:00,
2013-07-15 11:35:00,85.3,75.2,30.27,WNW,298,0.0,4.0,72,0.00,,,0.00,WeatherCatV1.20B785,2013-07-15 15:35:00,
2013-07-15 11:40:00,85.1,74.6,30.27,West,269,0.0,1.0,71,0.00,,,0.00,WeatherCatV1.20B785,2013-07-15 15:40:00,
2013-07-15 11:45:00,85.1,75.4,30.27,WSW,255,0.0,4.0,73,0.00,,,0.00,WeatherCatV1.20B785,2013-07-15 15:45:00,
2013-07-15 11:50:00,85.5,74.6,30.27,ESE,108,0.0,9.0,70,0.00,,,0.00,WeatherCatV1.20B785,2013-07-15 15:50:00,
2013-07-15 11:55:00,85.5,75.4,30.27,South,172,1.0,2.0,72,0.00,,,0.00,WeatherCatV1.20B785,2013-07-15 15:55:00,
2013-07-15 12:00:00,86.5,76.8,30.27,SE,131,0.0,5.0,73,0.00,,,0.00,WeatherCatV1.20B785,2013-07-15 16:00:00,
2013-07-15 12:05:00,86.5,77.6,30.27,South,190,0.0,0.0,75,0.00,,,0.00,WeatherCatV1.20B785,2013-07-15 16:05:00,
2013-07-15 12:10:00,85.9,75.4,30.27,South,190,0.0,1.0,71,0.00,,,0.00,WeatherCatV1.20B785,2013-07-15 16:10:00,
2013-07-15 12:15:00,84.7,75.5,30.27,WSW,248,2.0,2.0,74,0.00,,,0.00,WeatherCatV1.20B785,2013-07-15 16:15:00,
2013-07-15 12:20:00,83.8,75.4,30.27,WSW,250,0.0,0.0,76,0.00,,,0.00,WeatherCatV1.20B785,2013-07-15 16:20:00,
2013-07-15 12:25:00,83.8,75.4,30.27,WSW,250,0.0,1.0,76,0.00,,,0.00,WeatherCatV1.20B785,2013-07-15 16:25:00,
2013-07-15 12:35:00,84.7,76.3,30.27,WSW,250,0.0,2.0,76,0.00,,,0.00,WeatherCatV1.20B785,2013-07-15 16:35:00,
2013-07-15 12:45:00,85.1,75.0,30.27,WSW,238,0.0,2.0,72,0.00,,,0.00,WeatherCatV1.20B785,2013-07-15 16:45:00,
2013-07-15 12:50:00,84.3,76.7,30.27,West,278,0.0,3.0,78,0.00,,,0.00,WeatherCatV1.20B785,2013-07-15 16:50:00,
2013-07-15 12:55:00,85.1,77.1,30.27,West,275,2.0,5.0,77,0.00,,,0.00,WeatherCatV1.20B785,2013-07-15 16:55:00,
2013-07-15 13:00:00,85.9,76.2,30.27,SW,217,0.0,3.0,73,0.00,,,0.00,WeatherCatV1.20B785,2013-07-15 17:00:00,
2013-07-15 13:05:00,84.7,75.5,30.27,SSW,211,0.0,0.0,74,0.00,,,0.00,WeatherCatV1.20B785,2013-07-15 17:05:00,
2013-07-15 13:15:00,86.7,77.4,30.26,South,176,0.0,5.0,74,0.00,,,0.00,WeatherCatV1.20B785,2013-07-15 17:15:00,
2013-07-15 13:20:00,87.0,74.7,30.26,SSW,200,0.0,6.0,67,0.00,,,0.00,WeatherCatV1.20B785,2013-07-15 17:20:00,
2013-07-15 13:25:00,86.1,73.8,30.26,SSW,205,0.0,1.0,67,0.00,,,0.00,WeatherCatV1.20B785,2013-07-15 17:25:00,
2013-07-15 13:30:00,85.9,74.9,30.26,WNW,283,1.0,1.0,70,0.00,,,0.00,WeatherCatV1.20B785,2013-07-15 17:30:00,
2013-07-15 13:35:00,86.7,79.8,30.26,WNW,283,0.0,2.0,80,0.00,,,0.00,WeatherCatV1.20B785,2013-07-15 17:35:00,
2013-07-15 13:40:00,87.0,74.7,30.26,SSE,167,0.0,5.0,67,0.00,,,0.00,WeatherCatV1.20B785,2013-07-15 17:40:00,
2013-07-15 13:45:00,86.7,75.7,30.26,SE,144,0.0,3.0,70,0.00,,,0.00,WeatherCatV1.20B785,2013-07-15 17:45:00,
2013-07-15 13:55:00,84.7,75.5,30.26,SSW,200,0.0,1.0,74,0.00,,,0.00,WeatherCatV1.20B785,2013-07-15 17:55:00,
2013-07-15 14:10:00,86.5,74.2,30.26,SW,233,0.0,0.0,67,0.00,,,0.00,WeatherCatV1.20B785,2013-07-15 18:10:00,
2013-07-15 14:15:00,86.5,74.7,30.26,West,262,2.0,5.0,68,0.00,,,0.00,WeatherCatV1.20B785,2013-07-15 18:15:00,
2013-07-15 14:20:00,87.8,77.6,30.26,SW,227,0.0,0.0,72,0.00,,,0.00,WeatherCatV1.20B785,2013-07-15 18:20:00,
2013-07-15 14:35:00,87.6,77.8,30.25,SSE,156,2.0,4.0,73,0.00,,,0.00,WeatherCatV1.20B785,2013-07-15 18:35:00,
2013-07-15 14:40:00,87.8,78.0,30.25,West,281,1.0,3.0,73,0.00,,,0.00,WeatherCatV1.20B785,2013-07-15 18:40:00,
2013-07-15 14:45:00,88.4,77.3,30.25,West,281,0.0,4.0,70,0.00,,,0.00,WeatherCatV1.20B785,2013-07-15 18:45:00,
2013-07-15 14:50:00,88.6,75.8,30.25,SW,222,3.0,4.0,66,0.00,,,0.00,WeatherCatV1.20B785,2013-07-15 18:50:00,
2013-07-15 15:00:00,88.2,75.8,30.25,SW,234,0.0,2.0,67,0.00,,,0.00,WeatherCatV1.20B785,2013-07-15 19:00:00,
2013-07-15 15:05:00,88.2,76.3,30.25,SW,233,0.0,0.0,68,0.00,,,0.00,WeatherCatV1.20B785,2013-07-15 19:05:00,
2013-07-15 15:10:00,88.4,76.5,30.25,SW,235,0.0,2.0,68,0.00,,,0.00,WeatherCatV1.20B785,2013-07-15 19:10:00,
2013-07-15 15:15:00,88.6,78.4,30.24,SW,234,0.0,2.0,72,0.00,,,0.00,WeatherCatV1.20B785,2013-07-15 19:15:00,
2013-07-15 15:20:00,88.4,76.5,30.24,SSE,155,2.0,3.0,68,0.00,,,0.00,WeatherCatV1.20B785,2013-07-15 19:20:00,
2013-07-15 15:25:00,88.8,75.5,30.24,SSW,196,1.0,5.0,65,0.00,,,0.00,WeatherCatV1.20B785,2013-07-15 19:25:00,
2013-07-15 15:35:00,88.8,74.5,30.24,SSW,199,0.0,3.0,63,0.00,,,0.00,WeatherCatV1.20B785,2013-07-15 19:35:00,
2013-07-15 15:45:00,88.4,73.2,30.24,East,88,4.0,5.0,61,0.00,,,0.00,WeatherCatV1.20B785,2013-07-15 19:45:00,
2013-07-15 16:00:00,87.4,73.7,30.24,South,182,0.0,3.0,64,0.00,,,0.00,WeatherCatV1.20B785,2013-07-15 20:00:00,
2013-07-15 16:05:00,88.2,77.6,30.24,South,185,0.0,1.0,71,0.00,,,0.00,WeatherCatV1.20B785,2013-07-15 20:05:00,
2013-07-15 16:15:00,88.0,75.2,30.24,South,176,1.0,3.0,66,0.00,,,0.00,WeatherCatV1.20B785,2013-07-15 20:15:00,
2013-07-15 16:20:00,87.6,75.2,30.24,SE,141,2.0,3.0,67,0.00,,,0.00,WeatherCatV1.20B785,2013-07-15 20:20:00,
2013-07-15 16:25:00,88.4,73.7,30.24,SSW,193,0.0,4.0,62,0.00,,,0.00,WeatherCatV1.20B785,2013-07-15 20:25:00,
2013-07-15 16:30:00,88.8,76.8,30.23,West,278,0.0,6.0,68,0.00,,,0.00,WeatherCatV1.20B785,2013-07-15 20:30:00,
2013-07-15 16:35:00,88.6,73.9,30.23,SSE,167,0.0,3.0,62,0.00,,,0.00,WeatherCatV1.20B785,2013-07-15 20:35:00,
2013-07-15 16:40:00,88.2,74.9,30.23,SSE,151,0.0,0.0,65,0.00,,,0.00,WeatherCatV1.20B785,2013-07-15 20:40:00,
2013-07-15 16:45:00,88.6,75.3,30.23,SSW,200,2.0,2.0,65,0.00,,,0.00,WeatherCatV1.20B785,2013-07-15 20:45:00,
2013-07-15 16:50:00,88.4,73.2,30.23,WSW,253,0.0,2.0,61,0.00,,,0.00,WeatherCatV1.20B785,2013-07-15 20:50:00,
2013-07-15 16:55:00,88.6,73.4,30.23,SSE,149,0.0,3.0,61,0.00,,,0.00,WeatherCatV1.20B785,2013-07-15 20:55:00,
2013-07-15 17:00:00,88.8,76.8,30.23,SSW,207,0.0,3.0,68,0.00,,,0.00,WeatherCatV1.20B785,2013-07-15 21:00:00,
2013-07-15 17:05:00,88.8,74.5,30.23,South,176,0.0,5.0,63,0.00,,,0.00,WeatherCatV1.20B785,2013-07-15 21:05:00,
2013-07-15 17:15:00,88.4,76.0,30.23,SSE,163,0.0,1.0,67,0.00,,,0.00,WeatherCatV1.20B785,2013-07-15 21:15:00,
2013-07-15 17:20:00,88.6,73.4,30.23,South,172,0.0,6.0,61,0.00,,,0.00,WeatherCatV1.20B785,2013-07-15 21:20:00,
2013-07-15 17:25:00,88.6,73.9,30.23,WNW,297,0.0,4.0,62,0.00,,,0.00,WeatherCatV1.20B785,2013-07-15 21:25:00,
2013-07-15 17:35:00,88.8,73.1,30.22,SW,223,0.0,0.0,60,0.00,,,0.00,WeatherCatV1.20B785,2013-07-15 21:35:00,
2013-07-15 17:40:00,89.0,75.7,30.22,SSE,153,2.0,3.0,65,0.00,,,0.00,WeatherCatV1.20B785,2013-07-15 21:40:00,
2013-07-15 17:45:00,88.8,75.0,30.22,WSW,243,2.0,2.0,64,0.00,,,0.00,WeatherCatV1.20B785,2013-07-15 21:45:00,
2013-07-15 17:50:00,89.0,73.3,30.22,WSW,240,0.0,2.0,60,0.00,,,0.00,WeatherCatV1.20B785,2013-07-15 21:50:00,
2013-07-15 17:55:00,89.3,72.5,30.22,SSW,200,0.0,2.0,58,0.00,,,0.00,WeatherCatV1.20B785,2013-07-15 21:55:00,
2013-07-15 18:00:00,89.3,74.5,30.22,SE,131,0.0,1.0,62,0.00,,,0.00,WeatherCatV1.20B785,2013-07-15 22:00:00,
2013-07-15 18:05:00,89.3,75.9,30.22,SSW,192,0.0,0.0,65,0.00,,,0.00,WeatherCatV1.20B785,2013-07-15 22:05:00,
2013-07-15 18:15:00,89.0,73.8,30.22,SSE,168,0.0,6.0,61,0.00,,,0.00,WeatherCatV1.20B785,2013-07-15 22:15:00,
2013-07-15 18:20:00,89.0,72.8,30.22,South,183,0.0,2.0,59,0.00,,,0.00,WeatherCatV1.20B785,2013-07-15 22:20:00,
2013-07-15 18:40:00,89.0,72.8,30.21,West,276,0.0,4.0,59,0.00,,,0.00,WeatherCatV1.20B785,2013-07-15 22:40:00,
2013-07-15 18:45:00,89.0,74.2,30.21,WSW,250,0.0,1.0,62,0.00,,,0.00,WeatherCatV1.20B785,2013-07-15 22:45:00,
2013-07-15 18:50:00,88.8,73.6,30.21,SSE,161,0.0,3.0,61,0.00,,,0.00,WeatherCatV1.20B785,2013-07-15 22:50:00,
2013-07-15 19:00:00,88.4,74.2,30.21,SW,219,0.0,3.0,63,0.00,,,0.00,WeatherCatV1.20B785,2013-07-15 23:00:00,
2013-07-15 19:05:00,88.2,74.0,30.21,SW,223,0.0,1.0,63,0.00,,,0.00,WeatherCatV1.20B785,2013-07-15 23:05:00,
2013-07-15 19:10:00,88.0,74.3,30.21,SSW,209,0.0,2.0,64,0.00,,,0.00,WeatherCatV1.20B785,2013-07-15 23:10:00,
2013-07-15 19:25:00,86.7,73.9,30.21,ESE,113,0.0,2.0,66,0.00,,,0.00,WeatherCatV1.20B785,2013-07-15 23:25:00,
2013-07-15 19:40:00,85.1,73.3,30.21,SE,138,0.0,1.0,68,0.00,,,0.00,WeatherCatV1.20B785,2013-07-15 23:40:00,
2013-07-15 19:50:00,84.1,73.7,30.21,SE,138,0.0,0.0,71,0.00,,,0.00,WeatherCatV1.20B785,2013-07-15 23:50:00,
2013-07-15 20:00:00,83.4,73.8,30.21,SE,139,1.0,1.0,73,0.00,,,0.00,WeatherCatV1.20B785,2013-07-16 00:00:00,
2013-07-15 20:10:00,82.4,74.1,30.21,SE,139,0.0,0.0,76,0.00,,,0.00,WeatherCatV1.20B785,2013-07-16 00:10:00,
2013-07-15 20:15:00,82.0,73.7,30.21,SE,139,0.0,1.0,76,0.00,,,0.00,WeatherCatV1.20B785,2013-07-16 00:15:00,
2013-07-15 20:20:00,81.6,73.3,30.21,SE,139,0.0,0.0,76,0.00,,,0.00,WeatherCatV1.20B785,2013-07-16 00:20:00,
2013-07-15 20:25:00,81.2,73.3,30.21,SE,139,0.0,0.0,77,0.00,,,0.00,WeatherCatV1.20B785,2013-07-16 00:25:00,
2013-07-15 20:30:00,81.1,73.9,30.21,SE,139,0.0,0.0,79,0.00,,,0.00,WeatherCatV1.20B785,2013-07-16 00:30:00,
2013-07-15 20:35:00,80.7,73.6,30.21,SE,139,0.0,0.0,79,0.00,,,0.00,WeatherCatV1.20B785,2013-07-16 00:35:00,
2013-07-15 20:40:00,80.3,73.2,30.21,SE,139,0.0,0.0,79,0.00,,,0.00,WeatherCatV1.20B785,2013-07-16 00:40:00,
2013-07-15 20:45:00,80.3,73.2,30.21,SSE,160,0.0,0.0,79,0.00,,,0.00,WeatherCatV1.20B785,2013-07-16 00:45:00,
2013-07-15 20:50:00,79.9,73.2,30.21,SSE,160,0.0,0.0,80,0.00,,,0.00,WeatherCatV1.20B785,2013-07-16 00:50:00,
2013-07-15 21:00:00,79.4,74.1,30.21,ENE,69,0.0,0.0,84,0.00,,,0.00,WeatherCatV1.20B785,2013-07-16 01:00:00,
2013-07-15 21:05:00,79.0,74.4,30.21,ENE,68,0.0,0.0,86,0.00,,,0.00,WeatherCatV1.20B785,2013-07-16 01:05:00,
2013-07-15 21:10:00,78.6,74.4,30.21,ENE,68,0.0,0.0,87,0.00,,,0.00,WeatherCatV1.20B785,2013-07-16 01:10:00,
2013-07-15 21:15:00,78.3,74.1,30.21,ENE,68,0.0,0.0,87,0.00,,,0.00,WeatherCatV1.20B785,2013-07-16 01:15:00,
2013-07-15 21:20:00,78.1,74.2,30.21,ENE,68,0.0,0.0,88,0.00,,,0.00,WeatherCatV1.20B785,2013-07-16 01:20:00,
2013-07-15 21:25:00,77.7,73.8,30.21,ENE,68,0.0,0.0,88,0.00,,,0.00,WeatherCatV1.20B785,2013-07-16 01:25:00,
2013-07-15 21:30:00,77.6,74.1,30.21,ENE,68,0.0,0.0,89,0.00,,,0.00,WeatherCatV1.20B785,2013-07-16 01:30:00,
2013-07-15 21:35:00,77.2,73.7,30.21,ENE,68,0.0,0.0,89,0.00,,,0.00,WeatherCatV1.20B785,2013-07-16 01:35:00,
2013-07-15 21:50:00,76.5,73.0,30.22,ENE,68,0.0,0.0,89,0.00,,,0.00,WeatherCatV1.20B785,2013-07-16 01:50:00,
2013-07-15 21:55:00,76.3,72.8,30.22,ENE,68,0.0,0.0,89,0.00,,,0.00,WeatherCatV1.20B785,2013-07-16 01:55:00,
2013-07-15 22:00:00,76.1,72.6,30.24,ENE,68,0.0,0.0,89,0.00,,,0.00,WeatherCatV1.20B785,2013-07-16 02:00:00,
2013-07-15 22:05:00,76.0,72.8,30.24,ENE,68,0.0,0.0,90,0.00,,,0.00,WeatherCatV1.20B785,2013-07-16 02:05:00,
2013-07-15 22:15:00,75.6,72.8,30.25,ENE,68,0.0,0.0,91,0.00,,,0.00,WeatherCatV1.20B785,2013-07-16 02:15:00,
2013-07-15 22:25:00,75.3,72.8,30.25,ENE,68,0.0,0.0,92,0.00,,,0.00,WeatherCatV1.20B785,2013-07-16 02:25:00,
2013-07-15 22:30:00,75.3,73.1,30.25,ENE,68,0.0,0.0,93,0.00,,,0.00,WeatherCatV1.20B785,2013-07-16 02:30:00,
2013-07-15 22:35:00,75.1,72.9,30.25,ENE,68,0.0,0.0,93,0.00,,,0.00,WeatherCatV1.20B785,2013-07-16 02:35:00,
2013-07-15 22:40:00,75.1,72.9,30.25,ENE,68,0.0,0.0,93,0.00,,,0.00,WeatherCatV1.20B785,2013-07-16 02:40:00,
2013-07-15 22:45:00,74.9,73.1,30.26,ENE,68,0.0,0.0,94,0.00,,,0.00,WeatherCatV1.20B785,2013-07-16 02:45:00,
2013-07-15 22:55:00,74.7,73.2,30.26,ENE,68,0.0,0.0,95,0.00,,,0.00,WeatherCatV1.20B785,2013-07-16 02:55:00,
2013-07-15 23:00:00,74.6,73.1,30.26,ENE,68,0.0,0.0,95,0.00,,,0.00,WeatherCatV1.20B785,2013-07-16 03:00:00,
2013-07-15 23:05:00,74.6,73.4,30.26,ENE,68,0.0,0.0,96,0.00,,,0.00,WeatherCatV1.20B785,2013-07-16 03:05:00,
2013-07-15 23:20:00,74.0,72.8,30.25,ENE,68,0.0,0.0,96,0.00,,,0.00,WeatherCatV1.20B785,2013-07-16 03:20:00,
2013-07-15 23:25:00,74.0,73.1,30.25,ENE,68,0.0,0.0,97,0.00,,,0.00,WeatherCatV1.20B785,2013-07-16 03:25:00,
2013-07-15 23:35:00,73.9,73.0,30.25,ENE,68,0.0,0.0,97,0.00,,,0.00,WeatherCatV1.20B785,2013-07-16 03:35:00,
2013-07-15 23:40:00,73.9,73.0,30.25,ENE,68,0.0,0.0,97,0.00,,,0.00,WeatherCatV1.20B785,2013-07-16 03:40:00,
2013-07-15 23:45:00,73.9,73.3,30.25,ENE,68,0.0,0.0,98,0.00,,,0.00,WeatherCatV1.20B785,2013-07-16 03:45:00,
2013-07-15 23:50:00,73.7,73.1,30.25,ENE,68,0.0,0.0,98,0.00,,,0.00,WeatherCatV1.20B785,2013-07-16 03:50:00,